Worland, WY

8:28 PM MDT on April 20, 2018 (GMT -0600)
Worland Municipal

Weather History for KWRL - January, 2014

Change the Weather History Date:

Friday, January 10, 2014

  Actual Average Record
Temperature  
Mean Temperature 21 °F 16 °F  
Max Temperature 34 °F 30 °F 61 °F (1995)
Min Temperature 7 °F 3 °F -38 °F (1962)
Degree Days  
Heating Degree Days 44 49  
Month to date heating degree days 528 490  
Since 1 July heating degree days 3946 3853  
Cooling Degree Days 0 0  
Month to date cooling degree days 0 0  
Year to date cooling degree days 0 0  
Moisture  
Dew Point 14 °F    
Average Humidity 77    
Maximum Humidity 92    
Minimum Humidity 61    
Precipitation  
Precipitation 0.00 in 0.01 in 0.32 in (1997)
Month to date precipitation 0.13 0.08  
Year to date precipitation 0.13 0.08  
Sea Level Pressure  
Sea Level Pressure 29.87 in    
Wind  
Wind Speed 5 mph (SSE)    
Max Wind Speed 14 mph    
Max Gust Speed 17 mph    
Visibility 10 miles    
Events      
T = Trace of Precipitation, MM = Missing Value Source: NWS Daily Summary

Daily Weather History Graph

Daily Weather History Graph

Search for Another Location

Airport or City:

Astronomy

Jan. 10, 2014 Rise Set
Actual Time 7:45 AM MST 4:53 PM MST
Civil Twilight 7:12 AM MST 5:26 PM MST
Nautical Twilight 6:36 AM MST 6:02 PM MST
Astronomical Twilight 6:02 AM MST 6:36 PM MST
Moon 1:02 PM MST (1/10) 2:52 AM MST (1/10)
Length of Visible Light 10h 13m
Length of Day
9h 08m
Waxing Gibbous, 75% of the Moon is Illuminated
Jan 10
Waxing Gibbous
Jan 15
Full
Jan 23
Last Quarter
Jan 30
New
Feb 6
First Quarter

Hourly Weather History & Observations

Time (MST) Temp. Windchill Dew Point Humidity Pressure Visibility Wind Dir Wind Speed Gust Speed Precip Events Conditions
12:53 AM 15.1 °F - 12.0 °F 88% 29.85 in 10.0 mi Calm Calm - N/A   Clear
1:53 AM 12.0 °F 4.1 °F 10.0 °F 92% 29.84 in 10.0 mi SE 4.6 mph - N/A   Clear
2:53 AM 17.1 °F 7.6 °F 12.9 °F 84% 29.83 in 10.0 mi Variable 6.9 mph - N/A   Clear
3:53 AM 8.1 °F -5.3 °F 5.0 °F 87% 29.84 in 10.0 mi South 9.2 mph - N/A   Clear
4:53 AM 14.0 °F 5.1 °F 10.9 °F 88% 29.81 in 10.0 mi Variable 5.8 mph - N/A   Clear
5:53 AM 12.0 °F 2.7 °F 9.0 °F 88% 29.82 in 10.0 mi SSW 5.8 mph - N/A   Overcast
6:53 AM 18.0 °F 9.8 °F 14.0 °F 84% 29.81 in 10.0 mi South 5.8 mph - N/A   Overcast
7:53 AM 18.0 °F 6.9 °F 14.0 °F 84% 29.82 in 10.0 mi ESE 9.2 mph - N/A   Overcast
8:53 AM 19.0 °F 13.9 °F 14.0 °F 81% 29.84 in 10.0 mi Variable 3.5 mph - N/A   Overcast
9:53 AM 19.9 °F 11.1 °F 15.1 °F 81% 29.85 in 10.0 mi SSW 6.9 mph - N/A   Mostly Cloudy
10:53 AM 21.9 °F 13.4 °F 17.1 °F 82% 29.85 in 10.0 mi South 6.9 mph - N/A   Partly Cloudy
11:53 AM 25.0 °F - 17.1 °F 72% 29.84 in 10.0 mi Calm Calm - N/A   Partly Cloudy
12:53 PM 26.1 °F - 18.0 °F 71% 29.83 in 10.0 mi Calm Calm - N/A   Clear
1:53 PM 28.0 °F 22.8 °F 19.0 °F 69% 29.82 in 10.0 mi East 4.6 mph - N/A   Scattered Clouds
2:53 PM 34.0 °F 26.0 °F 21.9 °F 61% 29.79 in 10.0 mi SE 10.4 mph - N/A   Clear
3:53 PM 28.0 °F 24.2 °F 19.0 °F 69% 29.87 in 10.0 mi NNE 3.5 mph - N/A   Clear
4:53 PM 27.0 °F - 19.0 °F 72% 29.88 in 10.0 mi Calm Calm - N/A   Mostly Cloudy
5:53 PM 23.0 °F 18.4 °F 16.0 °F 74% 29.90 in 10.0 mi Variable 3.5 mph - N/A   Clear
6:53 PM 19.9 °F 14.9 °F 14.0 °F 78% 29.92 in 10.0 mi South 3.5 mph - N/A   Partly Cloudy
7:53 PM 19.0 °F 8.2 °F 12.9 °F 77% 29.94 in 10.0 mi South 9.2 mph - N/A   Clear
8:53 PM 16.0 °F - 10.9 °F 81% 29.99 in 10.0 mi Calm Calm - N/A   Clear
9:53 PM 16.0 °F 4.4 °F 10.9 °F 81% 30.00 in 10.0 mi SSW 9.2 mph - N/A   Clear
10:53 PM 16.0 °F 7.4 °F 10.9 °F 81% 30.01 in 10.0 mi South 5.8 mph - N/A   Clear
11:53 PM 18.0 °F 5.4 °F 10.9 °F 74% 30.01 in 10.0 mi SSW 11.5 mph - N/A   Clear